This is the latest recevied weather packets stored in our database for station/object WD7OO. If no packets are shown the sender has not sent any weather packets the latest 10 day(s).
| Time | Temp. | Humidity | Pressure | Rain* | Wind** | Luminosity | Snow |
|---|---|---|---|---|---|---|---|
| 1777829588 | 15.56° C | 47% | 1013.3 hPa | 0 mm | - | 543 W/m² | - |
| 1777829285 | 15.56° C | 50% | 1013.4 hPa | 0 mm | - | 496 W/m² | - |
| 1777828982 | 16.11° C | 49% | 1013.6 hPa | 0 mm | - | 504 W/m² | - |
| 1777828678 | 16.11° C | 47% | 1013.5 hPa | 0 mm | - | 588 W/m² | - |
| 1777828375 | 15.56° C | 48% | 1013.8 hPa | 0 mm | - | 518 W/m² | - |
| 1777828072 | 16.11° C | 46% | 1013.9 hPa | 0 mm | - | 615 W/m² | - |
| 1777827769 | 15.56° C | 48% | 1014.1 hPa | 0 mm | - | 692 W/m² | - |
| 1777827466 | 15.56° C | 50% | 1014 hPa | 0 mm | - | 644 W/m² | - |
| 1777827164 | 16.11° C | 49% | 1013.9 hPa | 0 mm | - | 650 W/m² | - |
| 1777826859 | 15.56° C | 49% | 1014.3 hPa | 0 mm | - | 635 W/m² | - |
| 1777826557 | 16.11° C | 49% | 1014.1 hPa | 0 mm | - | 600 W/m² | - |
| 1777826253 | 15.56° C | 49% | 1014.5 hPa | 0 mm | - | 554 W/m² | - |
| 1777825951 | 15.56° C | 49% | 1014.4 hPa | 0 mm | - | 613 W/m² | - |
| 1777825647 | 16.11° C | 47% | 1014.4 hPa | 0 mm | - | 655 W/m² | - |
| 1777825346 | 15.56° C | 50% | 1014.3 hPa | 0 mm | - | 703 W/m² | - |
| 1777825042 | 16.11° C | 48% | 1014.3 hPa | 0 mm | - | 432 W/m² | - |
| 1777824738 | 15.56° C | 46% | 1014.3 hPa | 0 mm | - | 712 W/m² | - |
| 1777824435 | 15.56° C | 49% | 1014.5 hPa | 0 mm | - | 660 W/m² | - |
| 1777824131 | 15° C | 48% | 1014.4 hPa | 0 mm | - | 753 W/m² | - |
| 1777823827 | 15° C | 50% | 1014.5 hPa | 0 mm | - | 579 W/m² | - |
| 1777823525 | 13.89° C | 49% | 1014.6 hPa | 0 mm | - | 585 W/m² | - |
| 1777823222 | 13.89° C | 51% | 1014.8 hPa | 0 mm | - | 436 W/m² | - |
| 1777822920 | 13.89° C | 51% | 1014.7 hPa | 0 mm | - | 360 W/m² | - |
| 1777822618 | 13.33° C | 52% | 1014.6 hPa | 0 mm | - | 282 W/m² | - |
| 1777822315 | 12.78° C | 52% | 1014.7 hPa | 0 mm | - | 252 W/m² | - |
* Rain latest hour (hover to see other rain measurements)
** Current wind speed in m/s (hover to see current wind gust speed)